Location: Seagrave Observatory
(41.8500°N, 71.5833°W)
Time: 23:38:51
(UTC-04:00)

Daily predictions for brighter satellites

Satellite Brightness Start Highest point End
(mag) Time Altitude Azimuth Time Altitude Azimuth Time Altitude Azimuth
Meteor 2-1 Rocket 4.4 20:48:35 10° N 20:54:23 63° ENE 21:00:02 10° SSE
Cosmos 2219 Rocket 3.4 20:49:51 10° NW 20:55:07 40° WSW 21:00:20 10° S
Cosmos 2333 Rocket 3.1 20:51:43 10° NW 20:57:09 48° WSW 21:02:31 10° S
Tiangong 1 0.8 20:58:07 10° WSW 21:00:53 60° SSE 21:03:39 10° E
Aureole 2 Rocket 3.8 20:59:21 10° NNW 21:03:16 44° WSW 21:06:58 10° S
SAR-Lupe-4 3.6 20:59:51 10° SSE 21:03:25 74° ENE 21:07:00 10° N
Okean 3 Rocket 4.0 21:02:06 10° SSE 21:06:21 43° E 21:10:37 10° NNE
Cosmos 2221 3.0 21:02:50 10° N 21:07:04 46° ENE 21:11:17 10° SSE
Envisat 3.7 21:05:17 10° S 21:10:15 55° W 21:15:15 10° NNW
Meteor 1-29 2.9 21:07:40 10° NNE 21:11:06 85° ESE 21:14:32 10° SSW
USA 186 4.4 21:18:36 10° WSW 21:18:58 10° W 21:19:19 10° W
RESURS DK-1 4.2 21:17:01 10° N 21:20:04 19° NE 21:23:05 10° E
Cosmos 1140 Rocket 3.8 21:16:54 10° SSW 21:22:03 71° WNW 21:27:13 10° NNE
Cosmos 2082 4.5 21:16:47 10° SW 21:22:17 57° WNW 21:27:52 10° NNE
USA 32 4.1 21:17:04 10° S 21:22:19 87° W 21:27:36 10° N
SAR-Lupe-1 4.2 21:19:17 10° S 21:22:52 73° WSW 21:26:28 10° NNW
Cosmos 1570 Rocket 4.2 21:18:06 10° NNW 21:23:24 64° ENE 21:28:16 12° SSE
Cosmos 1242 Rocket 3.1 21:21:45 10° N 21:25:20 44° ENE 21:28:21 14° SSE
Cosmos 1766 Rocket 4.4 21:21:31 10° SSE 21:25:21 32° E 21:29:13 10° NNE
USA 245 3.9 21:26:12 14° SE 21:28:37 36° ENE 21:32:18 10° N
Cosmos 2297 Rocket 3.1 21:23:26 10° SW 21:28:57 54° WNW 21:34:32 10° NNE
Resurs 01 Rocket 4.3 21:26:56 10° SW 21:29:29 15° W 21:32:03 10° NW
Cosmos 1939 Rocket 4.5 21:29:41 10° SSW 21:33:18 32° W 21:36:58 10° NNW
H-2A ROCKET BODY 3.9 21:35:19 14° SE 21:35:35 14° SE 21:40:00 10° ESE
Cosmos 1867 3.6 21:31:20 10° SSW 21:36:41 62° ESE 21:42:04 10° NE
Cosmos 2100 Rocket 4.0 21:32:46 10° N 21:39:06 78° E 21:45:23 10° S
Cosmos 1459 Rocket 4.0 21:32:52 10° N 21:39:11 73° E 21:45:04 12° SSE
Cosmos 2061 Rocket 4.1 21:33:31 10° N 21:39:53 67° E 21:45:43 13° SSE
MetOp-B 4.1 21:35:50 11° SSE 21:40:58 82° ENE 21:46:22 10° NNW
Cosmos 2263 Rocket 3.8 21:40:06 13° ESE 21:41:34 14° E 21:44:27 10° ENE
H-2A R/B 4.1 21:40:13 10° E 21:42:42 15° ENE 21:45:14 10° NNE
Cosmos 1340 Rocket 4.1 21:40:54 10° SSW 21:44:43 43° WNW 21:48:37 10° N
Cosmos 1300 3.8 21:44:48 10° NNE 21:48:11 28° ENE 21:50:00 19° ESE
ATLAS 5 CENTAUR R/B 2.0 21:44:57 10° SW 21:49:34 73° NW 21:54:40 10° NNE
Cosmos 2123 Rocket 4.4 21:45:55 14° SSE 21:50:54 45° E 21:56:45 10° NNE
Cosmos 1626 4.4 21:51:05 10° E 21:51:22 10° E 21:51:43 10° E
Cosmos 2173 Rocket 4.0 21:46:09 10° N 21:52:21 89° E 21:58:06 12° S
SPOT 5 2.9 21:49:06 16° SSE 21:52:54 78° ENE 21:57:58 10° N
Cosmos 1850 Rocket 4.4 21:48:36 10° SSW 21:53:44 64° WNW 21:58:55 10° NNE
Lacrosse 5 2.6 21:50:11 10° NW 21:55:06 47° NE 21:58:58 16° ESE
Cosmos 2084 3.3 21:51:55 10° SW 21:55:55 77° NW 21:59:46 10° NNE
Cosmos 2237 Rocket 4.2 21:52:45 10° NW 21:56:57 22° W 22:01:08 10° SSW
Cosmos 1726 2.5 21:53:28 10° N 21:57:03 46° E 21:58:49 25° SE
USA 234 3.2 21:51:27 10° NE 21:58:01 77° SE 22:04:33 10° SW
Cosmos 468 Rocket 4.2 21:53:15 10° NNW 21:58:19 57° ENE 22:01:35 21° SE
Nimbus 7 Rocket 4.5 21:54:33 10° NNE 22:00:32 62° ESE 22:06:07 12° S
Cosmos 371 Rocket 4.0 21:58:29 10° N 22:03:03 40° ENE 22:05:42 22° ESE
CZ-3B R/B 4.1 22:00:34 10° SW 22:03:44 90° SE 22:15:17 10° NE
Cosmos 1603 3.9 21:58:11 10° NNW 22:03:49 62° ENE 22:07:25 22° SE
H-2A R/B 2.2 22:00:47 20° SSE 22:04:31 71° ENE 22:09:55 10° N
ERS-1 Rocket 4.0 22:02:00 10° S 22:06:46 42° W 22:11:33 10° NNW
Atlas Centaur 2 3.4 22:06:34 10° SSW 22:06:40 10° SSW 22:06:40 10° SSW
Cosmos 1802 Rocket 4.1 22:04:51 10° N 22:10:59 76° W 22:16:08 15° S
Abrixas rocket 3.7 22:09:34 10° NW 22:12:35 34° NNE 22:14:57 14° ENE
Cosmos 1818 4.2 22:07:27 10° NW 22:12:41 49° WSW 22:16:16 19° S
Cosmos 1725 Rocket 4.0 22:07:34 10° N 22:13:50 67° E 22:17:52 23° SSE
Cosmos 1674 4.2 22:13:53 10° SW 22:17:21 34° WNW 22:20:49 10° N
SL-16 R/B 3.5 22:15:37 10° NW 22:20:39 34° WSW 22:25:10 12° SSW
Cosmos 1943 3.9 22:15:40 10° NNW 22:21:04 44° ENE 22:24:10 23° ESE
Cosmos 1455 4.1 22:19:30 10° NNE 22:22:03 17° ENE 22:22:49 16° E
Cosmos 220 Rocket 4.1 22:20:53 26° S 22:23:11 58° ESE 22:27:31 10° NNE
Landsat 7 3.8 22:20:56 28° SSE 22:23:27 75° ENE 22:28:13 10° N
ARGOS 3.8 22:20:18 15° S 22:24:36 51° W 22:29:54 10° NNW
Cosmos 1408 Rocket 4.2 22:23:35 11° SSW 22:27:34 51° W 22:31:48 10° N
deb Chang Zheng 4 4.3 22:24:50 10° NNE 22:28:51 35° E 22:29:44 31° SE
CZ-4B R/B 4.4 22:27:15 10° NE 22:31:55 31° E 22:33:13 28° ESE
CZ-4 R/B 4.5 22:29:27 10° NNE 22:33:58 37° E 22:35:11 32° SE
Tiangong 1 0.9 22:33:42 10° W 22:36:29 69° N 22:36:45 62° NE
DMSP B5D2-2 4.0 22:31:28 10° NNE 22:36:44 85° ESE 22:40:08 22° SSW
SME Rocket 4.5 22:36:02 20° E 22:37:20 24° ENE 22:40:53 10° N
Terra 1.8 22:36:22 34° SSE 22:38:24 74° ENE 22:43:10 10° N
Cosmos 2058 3.2 22:38:52 41° SE 22:39:51 51° E 22:43:57 10° NNE
Cosmos 1703 3.8 22:40:50 39° ESE 22:41:20 41° E 22:45:06 10° NNE
Meteor 1-11 4.2 22:40:38 28° S 22:43:48 72° E 22:49:36 10° NNE
Cosmos 1356 3.4 22:44:13 58° ESE 22:44:29 60° E 22:47:57 10° NNE
Cosmos 1500 Rocket 3.5 22:45:14 35° S 22:47:06 88° ESE 22:51:35 10° N
Cosmos 332 Rocket 4.2 22:47:45 10° NNW 22:52:33 55° WSW 22:54:33 32° SSW
ERBS 2.4 22:50:59 10° NW 22:54:22 64° NE 22:54:40 60° ENE
CZ-2C R/B 4.3 22:51:51 10° NE 22:55:15 17° E 22:55:34 17° E
Cosmos 2151 2.9 22:54:01 43° S 22:55:24 89° W 22:59:45 10° N
Cosmos 1814 Rocket 4.3 22:50:41 10° NNW 22:55:58 63° WSW 22:58:11 34° S
CARTOSAT-1 3.7 22:55:32 41° S 22:56:55 68° WSW 23:01:13 10° NNW
Meteor 1-27 4.2 22:52:09 10° N 22:58:00 89° ENE 23:00:29 36° S
RESURS DK-1 3.2 22:54:22 10° NW 22:58:18 41° WSW 22:59:21 34° SSW
Cosmos 1486 Rocket 4.0 22:57:03 24° SSW 23:00:20 80° WNW 23:05:41 10° NNE
Spot 4 4.0 23:00:17 43° SE 23:01:45 65° ENE 23:06:36 10° N
Cosmos 1805 Rocket 4.0 23:05:44 41° ESE 23:06:00 41° E 23:10:05 10° NNE
Cosmos 2233 Rocket 4.0 23:02:14 10° N 23:08:27 75° W 23:11:20 33° S
Cosmos 304 Rocket 4.1 23:04:33 10° NNW 23:09:17 55° ENE 23:10:27 43° ESE
Cosmos 841 Rocket 3.5 23:04:19 10° NNW 23:09:35 78° WSW 23:11:13 45° S
Cosmos 2228 Rocket 4.4 23:08:22 10° NNW 23:12:30 34° W 23:14:28 23° SW
Cosmos 1633 Rocket 4.3 23:12:49 26° E 23:12:49 26° E 23:16:21 10° NNE
Cosmos 1763 Rocket 3.8 23:08:01 10° NNW 23:13:00 55° WSW 23:14:35 39° SSW
H-2A R/B 2.5 23:17:20 42° SW 23:18:19 51° W 23:22:30 10° NNW
Cosmos 1151 Rocket 4.0 23:19:34 10° NNW 23:23:41 40° W 23:24:51 33° SW
Cosmos 2263 Rocket 2.2 23:21:44 28° SSW 23:24:45 76° WNW 23:30:21 10° NNE
Cosmos 1626 2.8 23:25:43 44° WSW 23:26:13 48° W 23:29:51 10° N
Cosmos 836 Rocket 4.4 23:28:10 10° NNW 23:33:29 85° WSW 23:34:41 55° S
Lacrosse 5 2.8 23:33:26 10° WNW 23:37:55 32° SW 23:38:08 32° SW
Cosmos 1513 Rocket 4.4 23:37:14 10° N 23:43:30 79° E 23:45:17 49° SSE
H-2A R/B 4.4 23:41:31 10° WSW 23:44:27 15° W 23:47:27 10° NW
Cosmos 1503 Rocket 4.3 23:43:59 35° SW 23:46:00 61° WNW 23:51:08 10° NNE
Cosmos 2285 Rocket 4.1 23:42:26 10° NNW 23:48:44 68° WSW 23:50:38 46° S
Abrixas rocket 4.3 23:46:15 10° WNW 23:47:34 22° WNW 23:47:34 22° WNW
Cosmos 1869 3.3 23:46:35 10° N 23:50:18 78° NNW 23:50:18 78° NNW
CZ-4C R/B 4.1 23:53:11 46° WSW 23:53:23 46° W 23:57:36 10° NNW
SWAS 4.3 23:53:33 86° WSW 23:53:37 87° WNW 23:57:58 10° NNE
